Torna al catalogo

QZS-7

AttivoGEO
NORAD 100270·PAYLOAD·🇯🇵 Japan

Lanciato Aug 10, 2026 da Tanegashima Space Center

Loading…

TLE

AggiornatoSource: Space-Track

Epoca: Sep 14, 2026, 18:06 UTC

1 A0270U 26182A   26257.75430084  .00000070  00000-0  00000-0 0  9998
2 A0270   2.9593 301.0714 0074473 358.7714 149.9429  1.00289703   395

Traccia QZS-7 in tempo reale con AllMySat

Download on the App Store